User: anonymous   Login
Location: Unspecified
(0.0000°N, 0.0000°E)
Time: 05:04:55
(UTC+02:00)
Language:

CZ-2C R/B - Orbit

View from above orbital plane
View from above orbital plane
View from above satellite
View from above satellite

Ground track
Ground track

The orbit data is extracted from the following two-line orbital elements,

1 28480U 04046B   18174.22150588 +.00000006 +00000-0 +17898-4 0  9991
2 28480 098.1759 251.2173 0141401 208.9415 160.0289 14.25676771707088
Epoch (UTC): 23 June 2018 05:18:58
Eccentricity: 0.0141401
inclination: 98.1759°
perigee height: 704 km
apogee height: 908 km
right ascension of ascending node: 251.2173°
argument of perigee: 208.9415°
revolutions per day: 14.25676771
mean anomaly at epoch: 160.0289°
orbit number at epoch: 70708

The dashed part of the orbit path shows where the satellite is in the earth's shadow,  

DLR